{"data":{"norad_id":64087,"epoch":"2026-05-25T04:23:37.101120Z","epoch_age_seconds":55103,"freshness":"FRESH","line1":"1 64087U 25108A   26145.18306830  .00004648  00000+0  24582-3 0  9993","line2":"2 64087  97.4769 220.2471 0003462  50.5310 309.6228 15.15945918 55835","mean_motion":15.15945918,"eccentricity":0.0003462,"inclination_deg":97.4769,"raan_deg":220.2471,"arg_perigee_deg":50.531,"mean_anomaly_deg":309.6228,"bstar":0.00024582,"rev_number":5583,"period_min":94.990196081652,"perigee_km":515.72084714133,"apogee_km":520.49580740593,"semimajor_km":6896.2453272736,"source":"CELESTRAK","updated_at":"2026-05-25T13:38:04.234705Z"}}